This is the latest recevied weather packets stored in our database for station/object EA6AMI-5. If no packets are shown the sender has not sent any weather packets the latest 1 day(s).
| Time | Temp. | Humidity | Pressure | Rain* | Wind** | Luminosity | Snow |
|---|---|---|---|---|---|---|---|
| 1778048823 | 14.44° C | 83% | 1012.5 hPa | 0 mm | 1.34 m/s, 115° | 45 W/m² | - |
| 1778048284 | 14.44° C | 86% | 1012.5 hPa | 0 mm | 0.89 m/s, 107° | 55 W/m² | - |
| 1778047744 | 14.44° C | 87% | 1012.5 hPa | 0 mm | 0.89 m/s, 67° | 39 W/m² | - |
| 1778047204 | 13.89° C | 87% | 1012.6 hPa | 0 mm | 0.45 m/s, 60° | 48 W/m² | - |
| 1778046843 | 13.33° C | 86% | 1012.5 hPa | 0 mm | 0.89 m/s, 64° | 38 W/m² | - |
| 1778046303 | 12.78° C | 86% | 1012.5 hPa | 0 mm | 0.89 m/s, 100° | 29 W/m² | - |
| 1778045763 | 12.22° C | 86% | 1012.3 hPa | 0 mm | 1.34 m/s, 129° | 23 W/m² | - |
| 1778045223 | 12.22° C | 86% | 1012.2 hPa | 0 mm | 0.89 m/s, 96° | 19 W/m² | - |
| 1778044684 | 12.22° C | 84% | 1012 hPa | 0 mm | 1.34 m/s, 101° | 18 W/m² | - |
| 1778044143 | 12.22° C | 85% | 1011.9 hPa | 0 mm | 0.89 m/s, 120° | 12 W/m² | - |
| 1778043603 | 12.22° C | 85% | 1011.8 hPa | 0 mm | 0.89 m/s, 100° | 7 W/m² | - |
| 1778043243 | 12.22° C | 83% | 1012 hPa | 0 mm | 1.34 m/s, 114° | 6 W/m² | - |
| 1778042704 | 12.22° C | 83% | 1011.8 hPa | 0 mm | 0.89 m/s, 129° | 2 W/m² | - |
| 1778042163 | 12.22° C | 82% | 1011.4 hPa | 0 mm | 0.89 m/s, 101° | 0 W/m² | - |
| 1778041623 | 12.78° C | 83% | 1011.5 hPa | 0 mm | 0.45 m/s, 94° | 0 W/m² | - |
| 1778041083 | 12.22° C | 86% | 1011.4 hPa | 0 mm | 0.89 m/s, 143° | 0 W/m² | - |
| 1778040543 | 12.22° C | 84% | 1011.6 hPa | 0 mm | 1.34 m/s, 123° | 0 W/m² | - |
| 1778040003 | 12.22° C | 84% | 1011.4 hPa | 0 mm | 1.34 m/s, 126° | 0 W/m² | - |
| 1778039643 | 12.78° C | 84% | 1011.2 hPa | 0 mm | 0.89 m/s, 132° | 0 W/m² | - |
| 1778039104 | 12.78° C | 86% | 1011.2 hPa | 0 mm | 0.89 m/s, 147° | 0 W/m² | - |
| 1778038563 | 12.22° C | 86% | 1011.2 hPa | 0 mm | 0.89 m/s, 126° | 0 W/m² | - |
| 1778038024 | 12.22° C | 86% | 1011.1 hPa | 0 mm | 1.34 m/s, 27° | 0 W/m² | - |
| 1778037483 | 12.22° C | 86% | 1011.2 hPa | 0 mm | 1.34 m/s, 82° | 0 W/m² | - |
| 1778036943 | 12.22° C | 85% | 1010.9 hPa | 0 mm | 0.89 m/s, 114° | 0 W/m² | - |
| 1778036403 | 12.78° C | 84% | 1010.9 hPa | 0 mm | 1.34 m/s, 112° | 0 W/m² | - |
* Rain latest hour (hover to see other rain measurements)
** Current wind speed in m/s (hover to see current wind gust speed)